User: anonymous   Login
Location: Antist
(43.1184°N, 0.1270°E)
Time: 21:11:29
(UTC+00:00)
Language:

STARLINK-1085 - Orbit

View from above orbital plane
View from above orbital plane
View from above satellite
View from above satellite

Ground track
Ground track

The orbit data is extracted from the following two-line orbital elements,

1 44963C 20001BB  20088.53503296  .00005737  00000-0  62413-4 0   881
2 44963  53.0002 352.7662 0007461 307.4657 172.6003 15.62758822    15
Epoch (UTC): 28 March 2020 12:50:26
Eccentricity: 0.0007461
inclination: 53.0002°
perigee height: 374 km
apogee height: 385 km
right ascension of ascending node: 352.7662°
argument of perigee: 307.4657°
revolutions per day: 15.62758822
mean anomaly at epoch: 172.6003°
orbit number at epoch: 1

The dashed part of the orbit path shows where the satellite is in the earth's shadow,  

DLR